{"data":{"norad_id":27426,"intl_designator":"2002-023A","name":"DIRECTV 5 (TEMPO 1)","alt_names":[],"object_type":"PAYLOAD","status":"ACTIVE","operator":null,"country":"US","launch_date":"2002-05-07","launch_site_code":"TYMSC","launch_vehicle":null,"mission":null,"orbit_class":"UNKNOWN","rcs_meters":12.5892,"size_class":null,"mass_kg":null,"dimensions":null,"purposes":["comms"],"wikipedia_slug":null,"has_3d_model":false,"image_url":null,"decayed_at":null,"tle_current":{"epoch":"2026-09-19T04:29:26.937312Z","epoch_age_seconds":124953,"freshness":"FRESH","line1":"1 27426U 02023A   26262.18711733 -.00000061  00000+0  00000+0 0  9993","line2":"2 27426   5.1114  74.0904 0003162 103.9985 137.2836  1.00272066 89063","mean_motion":1.00272066,"eccentricity":0.0003162,"inclination_deg":5.1114,"raan_deg":74.0904,"arg_perigee_deg":103.9985,"mean_anomaly_deg":137.2836,"bstar":0,"rev_number":8906,"period_min":1436.0928795463,"perigee_km":35773.183723536,"apogee_km":35799.848650212,"semimajor_km":42164.653186874,"source":"CELESTRAK","updated_at":"2026-09-20T09:00:35.513886Z"}}}